Wind_Speed
24 28 31 32 29 32 38 37 39 36 41 41 40 37 37 41 39 35 31 31 32 35 34 32 33 32 32 32 30 32 34 32 33 33 33 32 31 31 31 29 28 26 24 25
31 31 31 34 34 29 29 32 38 40 44 40 42 37 33 29 26 22 28 27 33 32 31 31 28 27 25 26 28 30 28 28 29 29 29 29 28 27 26 25 23 24 23 24
32 30 30 35 26 30 33 35 36 38 37 37 33 27 23 19 21 25 28 28 29 28 25 21 19 19 21 23 24 24 25 27 28 28 29 29 29 28 24 23 22 23 25 23
31 28 31 27 27 27 30 30 30 29 22 19 20 20 18 19 23 27 26 29 27 20 17 16 16 18 19 19 20 22 23 24 23 23 21 20 18 18 17 18 20 23 20 20
29 25 26 21 23 24 28 24 26 18 15 17 16 17 19 21 18 19 21 19 15 14 14 14 14 14 15 17 19 21 22 21 20 19 19 19 17 17 16 18 20 21 20 19
21 24 24 12 14 20 22 19 16 17 13 16 20 20 18 15 17 19 19 13 13 13 11 9 10 13 15 18 20 22 22 22 22 22 20 18 17 17 18 19 21 23 24 23
21 25 17 9 16 19 20 18 14 9 13 18 18 17 16 18 19 17 15 13 12 9 7 9 12 15 17 20 22 23 24 24 24 24 23 22 21 20 20 21 22 24 25 25
21 24 23 17 16 17 14 12 18 19 19 19 20 22 20 18 17 16 14 11 9 9 10 12 15 17 20 22 24 25 25 26 26 26 25 25 24 23 23 23 25 25 26 27
19 21 23 21 24 16 12 7 11 14 18 21 22 23 17 16 17 16 13 11 11 10 13 16 18 20 22 24 25 26 26 26 26 27 27 27 26 26 26 25 26 28 30 31
19 18 22 21 20 17 15 19 14 13 15 18 19 20 16 15 16 16 14 13 14 15 17 18 21 22 24 24 26 26 25 26 25 26 26 27 27 27 28 28 29 30 31 33
22 17 20 24 27 23 16 13 14 16 19 21 22 20 18 15 16 16 15 15 16 17 19 19 21 23 24 25 27 27 27 28 27 28 28 28 28 28 29 29 30 31 32 33
20 15 17 22 13 16 16 20 19 18 21 23 22 20 18 17 17 17 17 17 18 18 20 20 22 24 25 26 28 28 28 29 29 29 29 29 30 31 31 32 33 33 34 36
26 20 16 14 15 16 18 20 21 21 21 20 19 19 20 18 19 19 18 18 19 19 20 20 25 26 26 26 27 27 29 31 31 30 31 32 32 32 33 34 35 36 37 38
29 22 23 23 23 20 19 20 21 21 20 20 20 20 19 18 19 19 18 19 20 19 20 23 26 28 29 29 28 28 29 30 31 32 34 34 34 34 35 36 37 38 40 42
32 32 31 29 24 25 23 21 23 24 23 19 20 20 19 18 18 19 19 18 18 20 24 26 29 31 31 28 30 31 31 31 31 33 34 35 36 36 37 38 39 41 44 46
19 27 28 29 26 29 28 28 29 29 27 22 20 19 19 18 19 19 17 17 19 22 25 29 31 31 31 29 28 31 33 33 33 36 36 36 37 38 38 40 42 46 49 50
19 19 24 27 30 33 32 29 26 24 23 24 20 18 18 17 17 15 16 19 22 25 29 30 30 30 29 29 30 32 33 34 38 38 38 38 38 39 41 44 48 49 49 49
20 22 23 26 28 29 26 24 23 24 23 19 18 18 17 16 15 16 18 22 26 29 29 30 30 30 30 31 32 33 36 38 38 38 38 38 40 43 46 48 48 48 46 45
21 22 23 24 25 25 25 25 25 23 21 19 18 17 16 15 16 18 23 27 29 28 28 31 31 31 31 32 34 37 38 38 38 38 39 41 44 46 48 47 48 47 48 49
19 22 23 26 26 26 24 23 23 21 18 16 16 16 15 16 19 24 27 27 27 28 30 32 32 33 34 35 35 37 38 38 39 40 42 45 47 48 47 48 48 48 49 49
17 24 27 22 20 19 20 18 15 14 15 16 15 15 16 20 23 25 26 27 28 30 31 32 33 34 35 36 37 38 39 39 41 43 46 48 48 48 50 50 49 50 49 49
12 12 12 16 18 16 15 16 16 15 15 15 16 18 21 23 24 25 26 27 29 31 32 34 35 36 37 38 39 39 40 41 44 47 49 48 49 49 49 49 49 48 48 50
13 12 14 13 11 13 15 16 15 15 16 18 20 22 22 23 24 26 28 29 31 33 34 35 37 38 39 39 40 41 42 45 47 47 48 49 49 49 48 47 47 49 50 50
15 15 14 15 15 16 16 16 17 20 21 22 23 23 23 24 27 28 30 32 33 35 36 37 38 39 40 40 40 42 45 46 47 48 48 48 47 47 48 49 50 50 50 50
16 19 20 20 20 21 21 22 22 22 22 24 24 25 25 27 29 31 31 33 35 36 37 38 38 39 39 40 42 45 46 46 46 47 46 47 49 51 51 50 50 49 50 49
16 17 18 19 19 20 21 22 23 21 23 25 24 26 28 30 31 32 33 35 36 37 38 38 38 39 40 43 45 45 44 45 46 47 49 51 51 50 50 49 49 48 48 49
16 17 19 19 18 19 21 22 23 24 24 25 27 29 30 31 32 34 35 37 37 38 38 38 38 41 43 44 44 44 45 47 50 51 51 50 50 49 48 47 47 47 48 49
Wind_Direction
270 263 261 265 259 253 253 263 270 279 276 277 282 274 272 277 280 283 284 283 285 284 286 283 282 283 286 290 291 297 296 299 300 301 300 298 295 293 293 295 297 300 298 298
258 261 264 263 260 271 272 268 271 276 278 285 283 284 286 278 277 277 289 278 287 285 289 289 281 281 285 289 293 296 303 309 312 312 313 312 311 307 303 301 298 296 299 294
261 262 265 262 279 273 272 271 273 275 278 278 279 280 284 279 279 283 288 288 289 290 287 283 283 283 288 291 299 306 314 315 314 313 312 311 307 304 305 306 309 303 297 301
262 268 265 278 280 276 272 274 277 277 279 268 269 265 280 284 284 283 285 292 294 283 277 274 279 286 292 299 303 308 309 309 311 313 313 321 325 322 321 319 312 310 312 313
266 276 280 294 293 273 271 277 283 274 264 255 264 277 276 282 290 293 289 286 280 283 280 278 283 293 296 300 302 304 301 308 311 315 323 331 334 334 321 319 318 316 309 305
270 276 282 288 267 276 281 282 279 259 274 271 281 278 282 285 292 296 290 279 279 276 273 289 297 295 296 300 303 302 306 308 312 315 315 317 316 313 314 312 309 308 305 303
267 271 273 276 286 299 295 276 255 257 263 270 273 297 286 287 290 294 282 282 275 275 295 287 289 294 299 302 303 305 307 307 310 309 310 308 307 308 307 306 307 306 306 303
272 255 268 265 278 297 296 267 250 276 277 284 296 296 288 283 295 286 281 275 271 277 279 282 286 293 300 303 304 305 306 307 306 306 306 303 302 302 303 304 305 305 305 302
278 271 270 271 264 279 278 281 270 276 289 289 290 296 281 281 289 277 274 265 261 269 275 281 285 293 299 302 305 307 308 309 311 309 308 308 304 301 299 299 301 302 303 302
253 266 266 265 259 261 269 271 258 280 297 296 301 288 276 278 282 274 272 264 260 262 269 279 286 293 300 305 306 307 309 309 311 310 309 308 307 306 304 303 302 301 300 299
265 261 268 268 244 258 264 267 272 291 296 297 298 293 274 271 274 272 273 268 267 269 273 281 288 298 302 302 305 307 307 308 309 308 308 308 307 306 304 304 303 302 301 300
268 263 260 276 255 263 274 271 271 291 293 294 290 287 274 272 275 271 271 271 273 276 280 285 293 299 300 305 306 306 306 307 308 308 308 308 308 307 305 303 302 302 301 300
249 243 241 272 251 256 261 285 288 289 295 292 283 283 276 274 274 271 270 270 271 276 283 290 296 294 291 297 301 303 304 306 308 309 308 306 305 305 303 303 302 301 301 300
240 241 250 261 270 268 271 285 287 286 289 292 279 283 278 274 273 272 272 270 275 281 281 292 295 299 298 297 296 298 298 302 306 308 306 304 303 303 303 303 302 302 301 299
254 244 256 267 269 269 273 289 283 280 287 290 276 278 281 276 274 271 271 276 282 287 293 298 300 299 295 298 300 295 294 297 301 306 305 302 301 301 302 302 300 300 298 298
265 246 249 262 266 264 270 282 284 277 285 283 278 273 277 273 271 272 277 282 289 294 299 305 303 299 297 297 298 299 297 295 300 305 303 301 301 302 302 300 300 300 301 303
259 256 256 262 262 265 274 281 276 274 273 283 272 274 274 273 275 277 286 292 295 300 304 303 301 300 299 298 297 296 296 298 303 303 303 302 303 302 301 302 302 304 305 304
262 262 259 255 259 265 268 267 271 276 276 273 265 271 273 276 281 288 292 298 302 302 300 297 299 301 301 300 298 298 299 301 302 302 302 302 302 302 303 305 305 305 305 305
265 258 259 258 258 261 262 263 272 274 270 260 263 265 269 277 284 291 298 301 301 300 296 296 300 301 300 300 300 300 301 302 302 301 301 301 302 303 304 305 305 304 304 305
262 261 263 270 264 259 263 262 263 261 259 254 260 264 271 279 288 293 296 298 300 297 296 297 298 299 300 300 301 301 301 301 301 300 300 301 303 304 304 305 305 305 306 306
257 255 259 260 256 251 255 249 251 253 253 256 261 268 278 287 290 293 294 297 296 296 295 297 299 300 301 302 302 301 301 300 300 300 301 304 305 305 307 307 307 307 307 306
259 268 274 258 247 240 242 247 249 250 252 257 268 280 287 289 290 292 295 295 295 296 298 301 302 302 303 302 302 302 301 300 301 303 305 306 307 307 308 308 308 307 306 306
247 259 263 265 248 243 247 248 252 255 259 271 279 286 288 290 291 292 294 295 296 298 301 302 302 302 302 303 302 301 302 303 305 306 307 308 309 309 308 308 307 307 307 307
262 255 249 256 256 255 254 254 255 261 271 278 287 290 290 288 290 293 296 297 299 301 301 302 302 302 302 302 302 303 305 306 307 308 309 309 308 308 307 307 308 308 308 309
266 258 253 252 253 254 257 264 272 277 280 284 287 288 288 290 292 296 297 299 300 301 301 301 302 302 302 303 305 306 307 308 309 309 308 308 308 308 309 309 309 310 310 310
272 272 272 271 271 273 275 277 280 281 283 283 284 287 290 294 297 298 299 299 300 301 301 301 302 303 304 306 307 308 309 310 309 309 308 309 309 310 310 310 311 311 310 310
274 273 273 274 276 276 277 279 281 281 283 286 288 291 294 296 296 298 299 300 301 301 301 302 303 305 307 308 309 310 310 310 310 310 310 309 309 309 311 312 312 311 311 312
Height
5624 5622 5621 5621 5622 5622 5618 5619 5618 5621 5618 5619 5619 5617 5616 5613 5611 5611 5610 5609 5608 5606 5603 5600 5599 5598 5597 5594 5592 5590 5587 5584 5581 5577 5574 5570 5567 5565 5562 5560 5557 5555 5552 5550
5613 5612 5612 5611 5611 5614 5614 5612 5608 5608 5605 5609 5605 5604 5606 5604 5603 5603 5602 5601 5599 5596 5594 5591 5590 5590 5589 5588 5586 5584 5581 5577 5574 5570 5567 5563 5560 5557 5555 5552 5551 5549 5546 5544
5604 5604 5604 5601 5608 5604 5603 5601 5600 5599 5600 5598 5597 5596 5597 5596 5595 5595 5594 5593 5591 5588 5586 5584 5584 5584 5584 5582 5580 5578 5575 5572 5569 5566 5562 5559 5555 5552 5549 5547 5545 5543 5541 5538
5595 5596 5595 5599 5597 5596 5593 5593 5592 5590 5591 5591 5591 5590 5590 5590 5590 5589 5586 5585 5583 5581 5580 5580 5579 5579 5578 5577 5575 5573 5571 5569 5566 5562 5558 5555 5550 5547 5544 5542 5541 5539 5536 5534
5587 5589 5589 5591 5589 5587 5585 5587 5584 5584 5583 5584 5585 5585 5585 5585 5583 5582 5580 5579 5577 5576 5576 5575 5575 5574 5573 5572 5570 5569 5567 5564 5561 5557 5553 5549 5546 5544 5541 5539 5536 5534 5531 5529
5584 5582 5581 5585 5583 5580 5580 5580 5578 5579 5580 5580 5581 5582 5579 5578 5577 5576 5574 5573 5572 5571 5571 5570 5570 5570 5569 5568 5567 5565 5562 5559 5555 5552 5548 5545 5543 5540 5538 5535 5532 5529 5526 5524
5577 5575 5578 5580 5577 5576 5575 5577 5575 5576 5576 5577 5576 5575 5573 5572 5571 5569 5568 5568 5568 5567 5567 5567 5567 5566 5566 5565 5563 5560 5557 5553 5550 5547 5544 5541 5538 5536 5533 5530 5527 5524 5521 5519
5572 5570 5573 5572 5573 5573 5572 5570 5572 5573 5572 5570 5568 5568 5568 5567 5565 5564 5564 5564 5563 5563 5563 5563 5563 5563 5562 5560 5558 5555 5552 5548 5545 5542 5538 5535 5533 5530 5527 5524 5521 5518 5517 5513
5568 5567 5566 5565 5567 5567 5567 5568 5568 5568 5567 5565 5563 5562 5562 5562 5561 5560 5560 5559 5558 5559 5559 5559 5558 5558 5556 5554 5552 5549 5546 5543 5540 5536 5533 5529 5526 5523 5520 5518 5515 5511 5508 5505
5560 5560 5559 5560 5560 5561 5562 5564 5563 5563 5562 5560 5558 5556 5557 5558 5556 5555 5555 5554 5554 5554 5554 5554 5552 5552 5550 5548 5546 5543 5540 5537 5534 5530 5526 5523 5520 5516 5513 5510 5507 5504 5501 5497
5554 5552 5555 5555 5553 5556 5557 5558 5558 5557 5556 5554 5552 5551 5551 5552 5552 5551 5550 5549 5549 5549 5548 5548 5546 5546 5544 5542 5539 5537 5534 5530 5527 5523 5519 5516 5512 5509 5505 5502 5498 5495 5492 5489
5549 5549 5550 5550 5550 5550 5551 5552 5552 5553 5552 5549 5547 5545 5545 5546 5546 5545 5546 5545 5544 5543 5543 5542 5541 5539 5537 5535 5533 5530 5526 5523 5520 5516 5512 5508 5504 5501 5497 5493 5490 5486 5483 5479
5541 5543 5543 5544 5545 5546 5546 5545 5545 5546 5545 5543 5542 5541 5540 5541 5541 5540 5540 5539 5538 5537 5536 5536 5535 5533 5530 5528 5525 5522 5519 5515 5512 5509 5504 5500 5496 5492 5489 5485 5480 5477 5473 5469
5534 5537 5537 5538 5539 5540 5540 5539 5538 5539 5539 5538 5537 5535 5534 5535 5534 5534 5534 5533 5532 5531 5531 5530 5528 5525 5522 5520 5517 5514 5510 5506 5503 5500 5496 5492 5487 5483 5479 5475 5471 5468 5463 5458
5527 5529 5530 5531 5533 5532 5533 5533 5532 5532 5532 5532 5530 5529 5528 5528 5528 5527 5527 5527 5526 5525 5523 5522 5520 5517 5514 5512 5509 5505 5502 5498 5494 5491 5487 5483 5478 5474 5470 5466 5461 5457 5451 5447
5519 5521 5524 5524 5526 5526 5526 5527 5525 5524 5524 5524 5523 5523 5523 5522 5522 5521 5521 5520 5519 5518 5516 5515 5512 5508 5506 5503 5500 5496 5493 5489 5485 5481 5477 5473 5469 5465 5460 5455 5450 5445 5439 5433
5513 5515 5517 5518 5519 5519 5519 5519 5517 5517 5517 5517 5516 5516 5516 5516 5515 5515 5514 5513 5512 5510 5508 5506 5503 5500 5497 5495 5491 5487 5484 5480 5476 5471 5467 5462 5457 5453 5448 5442 5437 5431 5425 5419
5507 5508 5509 5510 5512 5512 5511 5511 5510 5510 5510 5510 5510 5510 5510 5509 5509 5508 5507 5506 5504 5503 5500 5497 5494 5491 5489 5486 5482 5477 5474 5470 5465 5460 5456 5451 5447 5441 5436 5430 5424 5418 5412 5407
5500 5501 5501 5502 5503 5504 5504 5504 5504 5504 5503 5504 5504 5504 5504 5503 5502 5501 5500 5498 5497 5494 5492 5488 5486 5483 5481 5477 5472 5467 5463 5459 5455 5450 5446 5441 5435 5430 5424 5418 5411 5405 5399 5394
5492 5493 5494 5494 5494 5495 5497 5497 5497 5496 5497 5498 5498 5498 5498 5497 5495 5494 5492 5491 5489 5486 5483 5480 5477 5475 5471 5467 5464 5459 5454 5449 5444 5439 5434 5429 5423 5417 5411 5405 5399 5393 5386 5380
5487 5487 5487 5486 5487 5488 5489 5490 5491 5491 5491 5492 5492 5492 5492 5490 5489 5486 5485 5483 5481 5478 5474 5472 5469 5465 5461 5457 5453 5449 5444 5439 5434 5428 5423 5417 5411 5405 5398 5392 5385 5379 5372 5366
5482 5481 5481 5481 5482 5483 5485 5485 5486 5486 5487 5487 5486 5486 5485 5483 5481 5479 5478 5475 5472 5469 5466 5463 5459 5455 5451 5446 5441 5437 5432 5428 5422 5417 5411 5404 5398 5392 5385 5379 5372 5366 5359 5352
5477 5478 5478 5478 5478 5480 5481 5481 5481 5481 5481 5481 5480 5478 5477 5474 5473 5471 5469 5466 5463 5460 5457 5453 5449 5445 5440 5436 5431 5426 5421 5416 5410 5404 5398 5391 5385 5378 5372 5366 5359 5353 5346 5339
5472 5473 5474 5475 5475 5476 5476 5476 5475 5475 5475 5474 5472 5471 5469 5467 5465 5463 5460 5457 5454 5451 5447 5443 5439 5434 5430 5425 5420 5415 5410 5404 5398 5392 5385 5379 5372 5366 5360 5353 5346 5339 5332 5325
5468 5468 5469 5469 5470 5470 5470 5469 5469 5468 5468 5466 5464 5463 5461 5459 5457 5454 5451 5448 5445 5441 5437 5433 5428 5424 5419 5414 5409 5404 5398 5392 5386 5380 5373 5367 5360 5353 5346 5339 5333 5325 5319 5312
5462 5462 5463 5463 5464 5464 5463 5462 5462 5461 5460 5458 5456 5455 5453 5451 5448 5445 5442 5438 5434 5431 5426 5422 5417 5413 5408 5403 5398 5392 5386 5380 5374 5368 5361 5354 5347 5340 5333 5326 5319 5313 5306 5299
5457 5457 5456 5457 5457 5457 5456 5455 5454 5453 5452 5450 5448 5447 5445 5442 5438 5435 5431 5427 5423 5419 5415 5411 5407 5402 5397 5391 5386 5380 5374 5368 5362 5356 5349 5342 5335 5327 5321 5314 5308 5301 5294 5287